Regional Weather Roundup
Issued by NWS

Home | Current Version | Previous Version | Text Only | Print | Product List | Glossary Off
Versions: 1 2 3 4 5 6 7 8 9 10 11 12 13 14 15 16 17 18 19 20 21 22 23 24 25 26 27 28 29 30 31 32 33 34 35 36 37 38 39 40 41 42 43 44 45 46 47 48 49 50

482
ASUS44 KMEG 010800
RWRTN
TENNESSEE HOURLY STATE WEATHER ROUNDUP
NATIONAL WEATHER SERVICE MEMPHIS TN
300 AM CDT SAT OCT 01 2016

TNZ002-004-019-021-049-052-054-088>092-010900-
WEST TENNESSEE

CITY           SKY/WX    TMP DP  RH WIND       PRES   REMARKS
MEMPHIS INTL   CLEAR     60  57  89 CALM      30.05F
NWS MEMPHIS      N/A     57 N/A N/A MISG        N/A
JACKSON          N/A    N/A N/A N/A MISG      30.05R
DYERSBURG      PTCLDY   N/A N/A N/A MISG        N/A
PARIS          MOCLDY    54  54 100 CALM      30.03S
$$

TNZ008-025-027-028-033-062-065-066-010900-
NORTH MIDDLE TENNESSEE

CITY           SKY/WX    TMP DP  RH WIND       PRES   REMARKS
NASHVILLE      MOCLDY    56  54  93 S5        30.04F
CLARKSVILLE    CLOUDY    59  57  93 S7        30.02F
SMYRNA         PTCLDY    55  53  93 S5        30.05F
COOKEVILLE       N/A     48  48 100 CALM      30.05F VSB 1/4
CROSSVILLE     CLEAR     51  49  92 CALM      30.09R
$$

TNZ061-075-076-078-094-096-097-010900-
SOUTH MIDDLE TENNESSEE

CITY           SKY/WX    TMP DP  RH WIND       PRES   REMARKS
$$

TNZ017-018-042-046-047-010900-
NORTHEAST TENNESSEE

CITY           SKY/WX    TMP DP  RH WIND       PRES   REMARKS
TRI CITIES     PTCLDY    51  50  96 CALM      30.08S
$$

TNZ012-013-036-069-073-074-010900-
CENTRAL EAST TENNESSEE

CITY           SKY/WX    TMP DP  RH WIND       PRES   REMARKS
KNOXVILLE      CLEAR     53  47  79 CALM      30.06F
OAK RIDGE      CLEAR     52  49  89 CALM      30.09S
GATLINBURG     CLEAR     46  45  93 CALM      30.07S
$$

TNZ083-085-099-010900-
SOUTHEAST TENNESSEE

CITY           SKY/WX    TMP DP  RH WIND       PRES   REMARKS
CHATTANOOGA    CLEAR     55  49  80 CALM      30.08R
$$

SKY/WX REPORTED AS FAIR MEANS FEW OR NO CLOUDS BELOW
12 THOUSAND FEET.





USA.gov is the U.S. government's official web portal to all federal, state and local government web resources and services.